Location: ???? ????
(41.4149°N, 22.8816°E)
Time: 14:44:29
(UTC+00:00)

PSLV R/B - Pass Details

Date: 14 July 2020
Orbit: 595 x 628 km, 97.9° (Epoch: 04 August)

Event Time Altitude Azimuth Distance (km) Brightness Sun altitude
Rises 02:03:30 0° 18° (NNE) 2,891 8.1 -10.5°
Reaches altitude 10° 02:05:45 10° 23° (NNE) 1,986 7.3 -10.2°
Maximum altitude 02:09:58 50° 100° (E) 790 4.4 -9.6°
Drops below altitude 10° 02:14:10 10° 176° (S) 1,988 5.8 -9.0°
Sets 02:16:24 0° 181° (S) 2,894 6.6 -8.7°
